^^
Station Historical Data
 
Daily Summary for December 10, 2018 Units:  English    Metric   Both
« Previous Day
Next Day »
Daily Weekly Monthly Yearly Custom
  Current: High: Low: Average:
Temperature: 34.6 °F TemperatureF °F 34.6 °F 34.7 °F
Dew Point: 30.3 °F DewpointF °F 29.7 °F 29.7 °F
Humidity: 84% Humidity% 78% 80%
Wind Speed: 2mph WindSpeedMPHmph 0mph 1.7mph
Wind Gust: 4mph WindSpeedGustMPHmph - -
WindWNW - - WNW
Pressure: 30.37 in PressureIn in 30.37 in -
Precipitation: 0 in      
Historical Graphs
 
 
Tabular Data for December 10, 2018
Time Temperature Dew Point Pressure Wind Wind Speed Wind Gust Humidity Rainfall Rate (Hourly) solar Conditions
TemperatureF °F DewpointF °F PressureIn in Calm     Humidity% HourlyPrecipIn in SolarRadiationWatts/m^2 W/m2 Conditions
00:04 37 °F 31.1 °F 30.39 in WNW 1 mph 7 mph 79% 0 in 0.00 W/m2
00:09 37 °F 30.8 °F 30.39 in WNW 1 mph 4 mph 78% 0 in 0.00 W/m2
00:14 36.9 °F 31 °F 30.39 in WNW 1 mph 4 mph 79% 0 in 0.00 W/m2
00:19 36.7 °F 30.8 °F 30.39 in WNW 2 mph 4 mph 79% 0 in 0.00 W/m2
00:24 36.2 °F 30.3 °F 30.39 in WNW 1 mph 4 mph 79% 0 in 0.00 W/m2
00:29 35.8 °F 30.6 °F 30.39 in WNW 3 mph 4 mph 81% 0 in 0.00 W/m2
00:34 35.4 °F 30.5 °F 30.39 in WNW 1 mph 3 mph 82% 0 in 0.00 W/m2
00:39 35.2 °F 30.6 °F 30.39 in West 1 mph 3 mph 83% 0 in 0.00 W/m2
00:44 35.3 °F 30.7 °F 30.39 in WNW 1 mph 3 mph 83% 0 in 0.00 W/m2
00:49 35.1 °F 30.5 °F 30.38 in WNW 1 mph 3 mph 83% 0 in 0.00 W/m2
00:54 35 °F 30.7 °F 30.39 in Calm   1 mph 84% 0 in 0.00 W/m2
00:59 35 °F 30.4 °F 30.38 in WNW 1 mph 2 mph 83% 0 in 0.00 W/m2
01:04 35.3 °F 30.7 °F 30.38 in Calm   3 mph 83% 0 in 0.00 W/m2
01:09 35.2 °F 30.6 °F 30.38 in Calm   4 mph 83% 0 in 0.00 W/m2
01:14 35.2 °F 30.6 °F 30.38 in Calm   4 mph 83% 0 in 0.00 W/m2
01:19 35.2 °F 30.6 °F 30.38 in WNW 1 mph 2 mph 83% 0 in 0.00 W/m2
01:24 35.5 °F 30.3 °F 30.37 in Calm   2 mph 81% 0 in 0.00 W/m2
01:29 35.6 °F 30.4 °F 30.38 in WNW 1 mph 2 mph 81% 0 in 0.00 W/m2
01:34 35.5 °F 30.3 °F 30.37 in WNW 1 mph 3 mph 81% 0 in 0.00 W/m2
01:39 35.3 °F 30.1 °F 30.38 in Calm   3 mph 81% 0 in 0.00 W/m2
01:44 35 °F 30.1 °F 30.38 in WNW 3 mph 4 mph 82% 0 in 0.00 W/m2
01:49 35.1 °F 30.2 °F 30.38 in WNW 3 mph 4 mph 82% 0 in 0.00 W/m2
01:54 35.3 °F 30.4 °F 30.38 in West 3 mph 4 mph 82% 0 in 0.00 W/m2
01:59 35.5 °F 30.6 °F 30.38 in WNW 3 mph 5 mph 82% 0 in 0.00 W/m2
02:04 35.7 °F 30.5 °F 30.39 in West 3 mph 6 mph 81% 0 in 0.00 W/m2
02:09 35.8 °F 30.2 °F 30.39 in WNW 2 mph 7 mph 80% 0 in 0.00 W/m2
02:14 35.7 °F 30.1 °F 30.38 in WNW 3 mph 7 mph 80% 0 in 0.00 W/m2
02:19 35.7 °F 30.1 °F 30.38 in WNW 2 mph 7 mph 80% 0 in 0.00 W/m2
02:24 35.5 °F 30 °F 30.38 in West 1 mph 4 mph 80% 0 in 0.00 W/m2
02:29 35.5 °F 30.3 °F 30.38 in WNW 2 mph 3 mph 81% 0 in 0.00 W/m2
02:34 35.3 °F 30.1 °F 30.38 in West 2 mph 4 mph 81% 0 in 0.00 W/m2
02:39 35.3 °F 30.1 °F 30.38 in WSW 2 mph 4 mph 81% 0 in 0.00 W/m2
02:44 35.2 °F 29.7 °F 30.38 in West 1 mph 4 mph 80% 0 in 0.00 W/m2
02:49 35.3 °F 29.8 °F 30.37 in West 2 mph 5 mph 80% 0 in 0.00 W/m2
02:54 35.2 °F 29.7 °F 30.38 in West 1 mph 5 mph 80% 0 in 0.00 W/m2
02:59 35 °F 29.8 °F 30.38 in West 4 mph 5 mph 81% 0 in 0.00 W/m2
03:04 35.1 °F 30.2 °F 30.38 in West 3 mph 7 mph 82% 0 in 0.00 W/m2
03:09 35.1 °F 30.2 °F 30.37 in West 1 mph 7 mph 82% 0 in 0.00 W/m2
03:14 34.9 °F 30 °F 30.38 in West 1 mph 4 mph 82% 0 in 0.00 W/m2
03:19 34.8 °F 29.9 °F 30.38 in West 6 mph 6 mph 82% 0 in 0.00 W/m2
03:24 34.9 °F 30.3 °F 30.38 in WNW 8 mph 8 mph 83% 0 in 0.00 W/m2
03:29 35.2 °F 30.6 °F 30.37 in WNW 1 mph 8 mph 83% 0 in 0.00 W/m2
03:34 35.1 °F 30.5 °F 30.37 in WNW 1 mph 5 mph 83% 0 in 0.00 W/m2
03:39 34.9 °F 30.6 °F 30.37 in West 2 mph 4 mph 84% 0 in 0.00 W/m2
03:44 34.7 °F 30.4 °F 30.37 in West 3 mph 4 mph 84% 0 in 0.00 W/m2
03:49 34.6 °F 30.3 °F 30.37 in WNW 2 mph 4 mph 84% 0 in 0.00 W/m2
Southlake, Texas, USA
Compliments of Weather Underground - 4 mb